This is the latest recevied weather packets stored in our database for station/object BARLOW-WX. If no packets are shown the sender has not sent any weather packets the latest 10 day(s).
| Time | Temp. | Humidity | Pressure | Rain* | Wind** | Luminosity | Snow |
|---|---|---|---|---|---|---|---|
| 1787929280 | 20.56° C | 58% | 993.7 hPa | 0 mm | - | - | - |
| 1787928380 | 20° C | 73% | 992.6 hPa | 0 mm | - | - | - |
| 1787927479 | 19.44° C | 69% | 992.9 hPa | 0 mm | - | - | - |
| 1787926578 | 18.89° C | 69% | 992.9 hPa | 0 mm | - | - | - |
| 1787925679 | 17.78° C | 75% | 992.9 hPa | 0 mm | - | - | - |
| 1787924778 | 17.22° C | 86% | 993.2 hPa | 0 mm | - | - | - |
| 1787923880 | 16.67° C | 86% | 993.2 hPa | 0 mm | - | - | - |
| 1787922978 | 15° C | 86% | 993.1 hPa | 0 mm | - | - | - |
| 1787922079 | 14.44° C | 86% | 993.1 hPa | 0 mm | - | - | - |
| 1787921177 | 13.89° C | 92% | 992.8 hPa | 0 mm | - | - | - |
| 1787920278 | 12.78° C | 92% | 992.8 hPa | 0 mm | - | - | - |
| 1787919378 | 12.22° C | 92% | 992.8 hPa | 0 mm | - | - | - |
| 1787918486 | 11.67° C | 92% | 992.8 hPa | 0 mm | - | - | - |
| 1787917578 | 11.11° C | 89% | 991.9 hPa | 0 mm | - | - | - |
| 1787916678 | 11.11° C | 87% | 992 hPa | 0 mm | - | - | - |
| 1787915785 | 11.11° C | 87% | 992.1 hPa | 0 mm | - | - | - |
| 1787914879 | 11.11° C | 87% | 992.1 hPa | 0 mm | - | - | - |
| 1787913978 | 11.67° C | 85% | 991 hPa | 0 mm | - | - | - |
| 1787913078 | 11.67° C | 86% | 991.6 hPa | 0 mm | - | - | - |
| 1787912184 | 11.67° C | 86% | 991.6 hPa | 0 mm | - | - | - |
| 1787911278 | 11.67° C | 86% | 991.6 hPa | 0 mm | - | - | - |
| 1787910377 | 11.67° C | 84% | 991 hPa | 0 mm | - | - | - |
| 1787909485 | 12.22° C | 85% | 991.8 hPa | 0 mm | - | - | - |
| 1787908585 | 12.22° C | 85% | 991.8 hPa | 0 mm | - | - | - |
| 1787907678 | 12.22° C | 85% | 991.8 hPa | 0 mm | - | - | - |
* Rain latest hour (hover to see other rain measurements)
** Current wind speed in m/s (hover to see current wind gust speed)